Regional Weather Roundup
Issued by NWS

Home | Current Version | Previous Version | Graphics & Text | Print | Product List | Glossary On
Versions: 1 2 3 4 5 6 7 8 9 10 11 12 13 14 15 16 17 18 19 20 21 22 23 24 25 26 27 28 29 30 31 32 33 34 35 36 37 38 39 40 41 42 43 44 45 46 47 48 49 50
000
ASUS45 KBOI 200110
RWRID
WEATHER ROUNDUP FOR IDAHO
NATIONAL WEATHER SERVICE BOISE ID
700 PM MDT TUE AUG 19 2014

NOTE: "FAIR" INDICATES FEW OR NO CLOUDS BELOW 12000 FEET
WITH NO SIGNIFICANT WEATHER AND/OR OBSTRUCTIONS TO VISIBILITY

IDZ012-014-200200-
SOUTHWEST IDAHO


CITY           SKY/WX    TMP DP  RH WIND       PRES   REMARKS
BOISE          PTSUNNY   85  42  22 NW17G29   29.71R
CALDWELL       PTSUNNY   81  46  30 W17G23    29.76R
MOUNTAIN HOME  PTSUNNY   92  38  15 NW12      29.68R
$$

IDZ016-017-200200-
SOUTHCENTRAL IDAHO


CITY           SKY/WX    TMP DP  RH WIND       PRES   REMARKS
BURLEY         CLOUDY    78  50  37 S15       29.77S
JEROME         CLOUDY    76  46  34 S10       29.78R
TWIN FALLS     CLOUDY    77  41  27 S24G35    29.78R
$$

IDZ019>023-200200-
SOUTHEAST IDAHO


CITY           SKY/WX    TMP DP  RH WIND       PRES   REMARKS
IDAHO FALLS    PTSUNNY   79  51  37 SW13      29.84R
POCATELLO      MOSUNNY   80  46  30 S17       29.84R
REXBURG        CLOUDY    73  46  38 S16G28    29.84S
$$

IDZ006-010-011-018-031-032-200200-
CENTRAL IDAHO MOUNTAINS


CITY           SKY/WX    TMP DP  RH WIND       PRES   REMARKS
MCCALL         PTSUNNY   77  38  24 N10       29.82S
HAILEY         PTSUNNY   66  52  59 CALM      29.90F
STANLEY          N/A     71  34  25 S6        29.94S
SALMON         CLOUDY    64  52  63 SW15      29.83F
CHALLIS        CLOUDY    70  45  40 N15       29.89F
$$

IDZ002-004-006-007-026-200200-
NORTHERN IDAHO


CITY           SKY/WX    TMP DP  RH WIND       PRES   REMARKS
LEWISTON       MOSUNNY   91  41  17 NW16G26   29.62F
LOWELL           N/A     80  58  46 N5        29.61S
COEUR D`ALENE  PTSUNNY   79  50  36 N16       29.67R
MULLAN PASS    PTSUNNY   65  49  56 CALM      29.91F
$$


USA.gov is the U.S. government's official web portal to all federal, state and local government web resources and services.